STARLINK-33722, 63571

Orbit data source: Space-Track

STARLINK-33722, 63571 is a payload satellite owned by SpaceX/Seattle (US) in LEO that was launched on Mon, 14 Apr 2025 UTC via an FALCON 9 launch vehicle from the Air Force Eastern Test Range (AFETR). Payload-class satellites include a variety of spacecraft equipped with specific instruments for various scientific and technological missions. These include communications satellites like Starlink; space stations such as the ISS; scientific satellites like the Hubble; Earth observation satellites from companies like Planet Labs, Umbra, and HawkEye 360; GPS; miniature CubeSats for education and research; and military/defense satellites.

Loading next visibility...
Identifier
63571, 2025-076C
Orbit
LEO
Country
Flag of USUS
Related business
Manufacturer
SpaceX/Seattle
Mission
Operational Commercial Communications
Bus & Motor
STARLINK V2MO, Unknown motor
Mass
575 kg wet, ~530 kg dry
Launch date (UTC)
2025-04-14 (1 year ago)
Launch vehicle
FALCON 9
Launch site
Air Force Eastern Test Range (AFETR)
Object type
Payload
Rocket body
Debris
Shape & HBR
Box + 2 Pan, 17.7 m
Radar Cross Section
36.964 m², Large (>1 m²)

Expand to show TLE details & history
Last TLE update: 8 hours ago

TLE from 8 hours ago
0 STARLINK-33722
1 63571U 25076C   26150.17304927  .00038386  00000-0  13965-2 0  9993
2 63571  42.9991 221.4014 0001409 233.7541 126.3180 15.27596977 64280
Epoch: 2026-05-30T04:09Z
TLE epoch observation values (Epoch: 2026-05-30T04:09:11.456Z)
Latitude
-0.00007°
Longitude
-88.58929°
Altitude
483.346 km
Speed
7.625 km/s
True Right ascension
14h 45m 36s
True Declination
0° 00' 00"
Sunlit
Object was in full shadow at epoch
Visualization orbit readout
Latitude
Unknown
Longitude
Unknown
Altitude
Unknown
Speed
Unknown
Apparent Right ascension
Unknown
Apparent Declination
Unknown
Sunlit
N/A
Visualization observer readout
Local Sidereal Time
21:49:05
Azimuth
Unknown
Elevation
Unknown
Doppler factor
Unknown
Orbital elements
Apogee altitude
485.911 km
Perigee altitude
483.977 km
Semi-major axis
6,863.081 km
Eccentricity
0.00014
Inclination
42.9991°
RAAN
221.4014°
Arg. of periapsis
233.7541°
True anomaly
126.33101°
Mean anomaly
126.318°
Eccentric anomaly
126.3245°
Mean motion
3.81737 °/min
Orbital period
94.31 mins
BSTAR
0.0013965
Loading maneuver chart data...
Computing Atmospheric mass density...
Loading historical data...
Loading historical data...
Loading historical data...
Loading historical data...
Loading historical data...
Loading historical data...
Loading historical data...

Documentation

Showing up to 5 results
|